{"data":{"norad_id":56529,"intl_designator":"2023-065AC","name":"STARLINK-6307","alt_names":[],"object_type":"PAYLOAD","status":"ACTIVE","operator":null,"country":"US","launch_date":"2023-05-14","launch_site_code":"AFETR","launch_vehicle":null,"mission":null,"orbit_class":"UNKNOWN","rcs_meters":null,"size_class":null,"mass_kg":null,"dimensions":null,"purposes":["comms"],"wikipedia_slug":null,"has_3d_model":false,"image_url":null,"decayed_at":null,"tle_current":{"epoch":"2026-09-20T01:32:28.644288Z","epoch_age_seconds":152468,"freshness":"FRESH","line1":"1 56529U 23065AC  26263.06422042 -.00000286  00000+0 -86820-6 0  9999","line2":"2 56529  43.0017 183.7167 0001346 262.0758  97.9941 15.27573917186451","mean_motion":15.27573917,"eccentricity":0.0001346,"inclination_deg":43.0017,"raan_deg":183.7167,"arg_perigee_deg":262.0758,"mean_anomaly_deg":97.9941,"bstar":-8.682e-7,"rev_number":18645,"period_min":94.267124096228,"perigee_km":482.14379269021,"apogee_km":483.99082889068,"semimajor_km":6861.2043107904,"source":"CELESTRAK","updated_at":"2026-09-21T09:00:33.474264Z"}}}